Year,Month,Day,Hour,Minute,Value (Times are PST for temperature in C)
2015,01,20,10,41,7.40
2015,01,20,10,42,7.40
2015,01,20,10,43,7.40
2015,01,20,10,44,7.40
2015,01,20,10,45,7.50
2015,01,20,10,46,7.50
2015,01,20,10,47,7.50
2015,01,20,10,48,7.50
2015,01,20,10,49,7.50
2015,01,20,10,50,7.50
2015,01,20,10,51,7.50
2015,01,20,10,52,7.60
2015,01,20,10,53,7.50
2015,01,20,10,54,7.60
2015,01,20,10,55,7.60
2015,01,20,10,56,7.60
2015,01,20,10,57,7.60
2015,01,20,10,58,7.60
2015,01,20,10,59,7.60
2015,01,20,11,00,7.60
2015,01,20,11,01,7.70
2015,01,20,11,02,7.70
2015,01,20,11,03,7.70
2015,01,20,11,04,7.70
2015,01,20,11,05,7.80
2015,01,20,11,06,7.80
2015,01,20,11,07,7.80
2015,01,20,11,08,7.80
2015,01,20,11,09,7.80
2015,01,20,11,10,7.80
2015,01,20,11,11,7.90
2015,01,20,11,12,7.90
2015,01,20,11,13,7.90
2015,01,20,11,14,7.90
2015,01,20,11,15,7.90
2015,01,20,11,16,7.90
2015,01,20,11,17,7.90
2015,01,20,11,18,7.90
2015,01,20,11,19,7.90
2015,01,20,11,20,7.90
2015,01,20,11,21,8.00
2015,01,20,11,22,8.00
2015,01,20,11,23,8.10
2015,01,20,11,24,8.10
2015,01,20,11,25,8.10
2015,01,20,11,26,8.20
2015,01,20,11,27,8.20
2015,01,20,11,28,8.20
2015,01,20,11,29,8.20
2015,01,20,11,30,8.20
2015,01,20,11,31,8.20
2015,01,20,11,32,8.20
2015,01,20,11,33,8.20
2015,01,20,11,34,8.20
2015,01,20,11,35,8.20
2015,01,20,11,36,8.20
2015,01,20,11,37,8.20
2015,01,20,11,38,8.20
2015,01,20,11,39,8.20
2015,01,20,11,40,8.20
2015,01,20,11,41,8.20
2015,01,20,11,42,8.20
2015,01,20,11,43,8.20
2015,01,20,11,44,8.20
2015,01,20,11,45,8.20
2015,01,20,11,46,8.30
2015,01,20,11,47,8.30
2015,01,20,11,48,8.30
2015,01,20,11,49,8.30
2015,01,20,11,50,8.30
2015,01,20,11,51,8.30
2015,01,20,11,52,8.30
2015,01,20,11,53,8.40
2015,01,20,11,54,8.40
2015,01,20,11,55,8.40
2015,01,20,11,56,8.40
2015,01,20,11,57,8.40
2015,01,20,11,58,8.50
2015,01,20,11,59,8.50
2015,01,20,12,00,8.60
2015,01,20,12,01,8.60
2015,01,20,12,02,8.60
2015,01,20,12,03,8.70
2015,01,20,12,04,8.70
2015,01,20,12,05,8.70
2015,01,20,12,06,8.70
2015,01,20,12,07,8.70
2015,01,20,12,08,8.70
2015,01,20,12,09,8.80
2015,01,20,12,10,8.80
2015,01,20,12,11,8.80
2015,01,20,12,12,8.90
2015,01,20,12,13,8.90
2015,01,20,12,14,8.90
2015,01,20,12,15,8.90
2015,01,20,12,16,8.90
2015,01,20,12,17,8.90
2015,01,20,12,18,8.90
2015,01,20,12,19,8.90
2015,01,20,12,20,8.90
2015,01,20,12,21,8.90
2015,01,20,12,22,8.90
2015,01,20,12,23,8.90
2015,01,20,12,24,8.90
2015,01,20,12,25,8.90
2015,01,20,12,26,8.90
2015,01,20,12,27,8.90
2015,01,20,12,28,8.90
2015,01,20,12,29,8.90
2015,01,20,12,30,8.90
2015,01,20,12,31,8.90
2015,01,20,12,32,9.00
2015,01,20,12,33,9.10
2015,01,20,12,34,9.10
2015,01,20,12,35,9.20
2015,01,20,12,36,9.20
2015,01,20,12,37,9.30
2015,01,20,12,38,9.30
2015,01,20,12,39,9.40
2015,01,20,12,40,9.40
2015,01,20,12,41,9.50
2015,01,20,12,42,9.60
2015,01,20,12,43,9.60
2015,01,20,12,44,9.60
2015,01,20,12,45,9.60
2015,01,20,12,46,9.60
2015,01,20,12,47,9.60
2015,01,20,12,48,9.60
2015,01,20,12,49,9.60
2015,01,20,12,50,9.60
2015,01,20,12,51,9.60
2015,01,20,12,52,9.60
2015,01,20,12,53,9.60
2015,01,20,12,54,9.60
2015,01,20,12,55,9.60
2015,01,20,12,56,9.60
2015,01,20,12,57,9.60
2015,01,20,12,58,9.60
2015,01,20,12,59,9.60
2015,01,20,13,00,9.60
2015,01,20,13,01,9.60
2015,01,20,13,02,9.60
2015,01,20,13,03,9.60
2015,01,20,13,04,9.60
2015,01,20,13,05,9.60
2015,01,20,13,06,9.60
2015,01,20,13,07,9.60
2015,01,20,13,08,9.70
2015,01,20,13,09,9.70
2015,01,20,13,10,9.60
2015,01,20,13,11,9.60
2015,01,20,13,12,9.60
2015,01,20,13,13,9.50
2015,01,20,13,14,9.50
2015,01,20,13,15,9.40
2015,01,20,13,16,9.40
2015,01,20,13,17,9.40
2015,01,20,13,18,9.40
2015,01,20,13,19,9.40
2015,01,20,13,20,9.40
2015,01,20,13,21,9.40
2015,01,20,13,22,9.40
2015,01,20,13,23,9.40
2015,01,20,13,24,9.40
2015,01,20,13,25,9.50
2015,01,20,13,26,9.50
2015,01,20,13,27,9.50
2015,01,20,13,28,9.50
2015,01,20,13,29,9.50
2015,01,20,13,30,9.50
2015,01,20,13,31,9.50
2015,01,20,13,32,9.50
2015,01,20,13,33,9.50
2015,01,20,13,34,9.50
2015,01,20,13,35,9.50
2015,01,20,13,36,9.50
2015,01,20,13,37,9.50
2015,01,20,13,38,9.60
2015,01,20,13,39,9.60
2015,01,20,13,40,9.60
2015,01,20,13,41,9.60
2015,01,20,13,42,9.60
2015,01,20,13,43,9.70
2015,01,20,13,44,9.70
2015,01,20,13,45,9.70
2015,01,20,13,46,9.70
2015,01,20,13,47,9.80
2015,01,20,13,48,9.80
2015,01,20,13,49,9.80
2015,01,20,13,50,9.80
2015,01,20,13,51,9.80
2015,01,20,13,52,9.80
2015,01,20,13,53,9.80
2015,01,20,13,54,9.80
2015,01,20,13,55,9.80
2015,01,20,13,56,9.80
2015,01,20,13,57,9.80
2015,01,20,13,58,9.70
2015,01,20,13,59,9.70
2015,01,20,14,00,9.70
2015,01,20,14,01,9.70
2015,01,20,14,02,9.60
2015,01,20,14,03,9.60
2015,01,20,14,04,9.60
2015,01,20,14,05,9.60
2015,01,20,14,06,9.60
2015,01,20,14,07,9.60
2015,01,20,14,08,9.60
2015,01,20,14,09,9.60
2015,01,20,14,10,9.60
2015,01,20,14,11,9.60
2015,01,20,14,12,9.60
2015,01,20,14,13,9.60
2015,01,20,14,14,9.70
2015,01,20,14,15,9.70
2015,01,20,14,16,9.70
2015,01,20,14,17,9.70
2015,01,20,14,18,9.70
2015,01,20,14,19,9.70
2015,01,20,14,20,9.70
2015,01,20,14,21,9.70
2015,01,20,14,22,9.70
2015,01,20,14,23,9.70
2015,01,20,14,24,9.70
2015,01,20,14,25,9.60
2015,01,20,14,26,9.60
2015,01,20,14,27,9.60
2015,01,20,14,28,9.60
2015,01,20,14,29,9.60
2015,01,20,14,30,9.60
2015,01,20,14,31,9.60
2015,01,20,14,32,9.60
2015,01,20,14,33,9.60
2015,01,20,14,34,9.60
2015,01,20,14,35,9.60
2015,01,20,14,36,9.60
2015,01,20,14,37,9.60
2015,01,20,14,38,9.60
2015,01,20,14,39,9.60
2015,01,20,14,40,9.60
2015,01,20,14,41,9.60
2015,01,20,14,42,9.60
2015,01,20,14,43,9.70
2015,01,20,14,44,9.70
2015,01,20,14,45,9.70
2015,01,20,14,46,9.70
2015,01,20,14,47,9.70
2015,01,20,14,48,9.70
2015,01,20,14,49,9.70
2015,01,20,14,50,9.70
2015,01,20,14,51,9.70
2015,01,20,14,52,9.70
2015,01,20,14,53,9.70
2015,01,20,14,54,9.70
2015,01,20,14,55,9.70
2015,01,20,14,56,9.70
2015,01,20,14,57,9.70
2015,01,20,14,58,9.70
2015,01,20,14,59,9.70
2015,01,20,15,00,9.70
2015,01,20,15,01,9.70
2015,01,20,15,02,9.70
2015,01,20,15,03,9.70
2015,01,20,15,04,9.70
2015,01,20,15,05,9.60
2015,01,20,15,06,9.60
2015,01,20,15,07,9.60
2015,01,20,15,08,9.60
2015,01,20,15,09,9.60
2015,01,20,15,10,9.60
2015,01,20,15,11,9.60
2015,01,20,15,12,9.60
2015,01,20,15,13,9.60
2015,01,20,15,14,9.60
2015,01,20,15,15,9.60
2015,01,20,15,16,9.60
2015,01,20,15,17,9.60
2015,01,20,15,18,9.60
2015,01,20,15,19,9.60
2015,01,20,15,20,9.60
2015,01,20,15,21,9.70
2015,01,20,15,22,9.70
2015,01,20,15,23,9.60
2015,01,20,15,24,9.60
2015,01,20,15,25,9.60
2015,01,20,15,26,9.60
2015,01,20,15,27,9.60
2015,01,20,15,28,9.50
2015,01,20,15,29,9.50
2015,01,20,15,30,9.50
2015,01,20,15,31,9.50
2015,01,20,15,32,9.50
2015,01,20,15,33,9.40
2015,01,20,15,34,9.40
2015,01,20,15,35,9.40
2015,01,20,15,36,9.40
2015,01,20,15,37,9.40
2015,01,20,15,38,9.30
2015,01,20,15,39,9.30
2015,01,20,15,40,9.30
2015,01,20,15,41,9.30
2015,01,20,15,42,9.30
2015,01,20,15,43,9.20
2015,01,20,15,44,9.20
2015,01,20,15,45,9.20
2015,01,20,15,46,9.20
2015,01,20,15,47,9.20
2015,01,20,15,48,9.10
2015,01,20,15,49,9.10
2015,01,20,15,50,9.10
2015,01,20,15,51,9.00
2015,01,20,15,52,9.00
2015,01,20,15,53,9.00
2015,01,20,15,54,8.90
2015,01,20,15,55,8.90
2015,01,20,15,56,8.90
2015,01,20,15,57,8.90
2015,01,20,15,58,8.90
2015,01,20,15,59,8.80
2015,01,20,16,00,8.80
2015,01,20,16,01,8.80
2015,01,20,16,02,8.80
2015,01,20,16,03,8.80
2015,01,20,16,04,8.70
2015,01,20,16,05,8.70
2015,01,20,16,06,8.70
2015,01,20,16,07,8.70
2015,01,20,16,08,8.60
2015,01,20,16,09,8.60
2015,01,20,16,10,8.60
2015,01,20,16,11,8.60
2015,01,20,16,12,8.60
2015,01,20,16,13,8.50
2015,01,20,16,14,8.50
2015,01,20,16,15,8.50
2015,01,20,16,16,8.40
2015,01,20,16,17,8.40
2015,01,20,16,18,8.40
2015,01,20,16,19,8.40
2015,01,20,16,20,8.40
2015,01,20,16,21,8.30
2015,01,20,16,22,8.30
2015,01,20,16,23,8.30
2015,01,20,16,24,8.30
2015,01,20,16,25,8.30
2015,01,20,16,26,8.20
2015,01,20,16,27,8.20
2015,01,20,16,28,8.20
2015,01,20,16,29,8.20
2015,01,20,16,30,8.20
2015,01,20,16,31,8.10
2015,01,20,16,32,8.10
2015,01,20,16,33,8.10
2015,01,20,16,34,8.10
2015,01,20,16,35,8.10
2015,01,20,16,36,8.10
2015,01,20,16,37,8.00
2015,01,20,16,38,8.00
2015,01,20,16,39,8.00
2015,01,20,16,40,8.00
2015,01,20,16,41,7.90
2015,01,20,16,42,7.90
2015,01,20,16,43,7.90
2015,01,20,16,44,7.90
2015,01,20,16,45,7.90
2015,01,20,16,46,7.90
2015,01,20,16,47,7.90
2015,01,20,16,48,7.80
2015,01,20,16,49,7.80
2015,01,20,16,50,7.80
2015,01,20,16,51,7.80
2015,01,20,16,52,7.80
2015,01,20,16,53,7.80
2015,01,20,16,54,7.80
2015,01,20,16,55,7.70
2015,01,20,16,56,7.70
2015,01,20,16,57,7.70
2015,01,20,16,58,7.70
2015,01,20,16,59,7.60
2015,01,20,17,00,7.60
2015,01,20,17,01,7.60
2015,01,20,17,02,7.60
2015,01,20,17,03,7.50
2015,01,20,17,04,7.50
2015,01,20,17,05,7.40
2015,01,20,17,06,7.40
2015,01,20,17,07,7.40
2015,01,20,17,08,7.40
2015,01,20,17,09,7.40
2015,01,20,17,10,7.30
2015,01,20,17,11,7.30
2015,01,20,17,12,7.30
2015,01,20,17,13,7.30
2015,01,20,17,14,7.30
2015,01,20,17,15,7.20
2015,01,20,17,16,7.20
2015,01,20,17,17,7.20
2015,01,20,17,18,7.10
2015,01,20,17,19,7.10
2015,01,20,17,20,7.10
2015,01,20,17,21,7.00
2015,01,20,17,22,7.00
2015,01,20,17,23,6.90
2015,01,20,17,24,6.90
2015,01,20,17,25,6.90
2015,01,20,17,26,6.80
2015,01,20,17,27,6.80
2015,01,20,17,28,6.70
2015,01,20,17,29,6.70
2015,01,20,17,30,6.60
2015,01,20,17,31,6.60
2015,01,20,17,32,6.60
2015,01,20,17,33,6.60
2015,01,20,17,34,6.60
2015,01,20,17,35,6.50
2015,01,20,17,36,6.50
2015,01,20,17,37,6.50
2015,01,20,17,38,6.50
2015,01,20,17,39,6.40
2015,01,20,17,40,6.40
2015,01,20,17,41,6.40
2015,01,20,17,42,6.40
2015,01,20,17,43,6.30
2015,01,20,17,44,6.30
2015,01,20,17,45,6.30
2015,01,20,17,46,6.30
2015,01,20,17,47,6.30
2015,01,20,17,48,6.20
2015,01,20,17,49,6.20
2015,01,20,17,50,6.20
2015,01,20,17,51,6.20
2015,01,20,17,52,6.10
2015,01,20,17,53,6.10
2015,01,20,17,54,6.10
2015,01,20,17,55,6.10
2015,01,20,17,56,6.00
2015,01,20,17,57,6.00
2015,01,20,17,58,5.90
2015,01,20,17,59,5.90
2015,01,20,18,00,5.90
2015,01,20,18,01,5.80
2015,01,20,18,02,5.80
2015,01,20,18,03,5.80
2015,01,20,18,04,5.80
2015,01,20,18,05,5.80
2015,01,20,18,06,5.70
2015,01,20,18,07,5.70
2015,01,20,18,08,5.70
2015,01,20,18,09,5.70
2015,01,20,18,10,5.70
2015,01,20,18,11,5.60
2015,01,20,18,12,5.60
2015,01,20,18,13,5.60
2015,01,20,18,14,5.60
2015,01,20,18,15,5.50
2015,01,20,18,16,5.50
2015,01,20,18,17,5.40
2015,01,20,18,18,5.40
2015,01,20,18,19,5.40
2015,01,20,18,20,5.40
2015,01,20,18,21,5.30
2015,01,20,18,22,5.30
2015,01,20,18,23,5.30
2015,01,20,18,24,5.30
2015,01,20,18,25,5.20
2015,01,20,18,26,5.20
2015,01,20,18,27,5.20
2015,01,20,18,28,5.20
2015,01,20,18,29,5.10
2015,01,20,18,30,5.10
2015,01,20,18,31,5.10
2015,01,20,18,32,5.10
2015,01,20,18,33,5.10
2015,01,20,18,34,5.00
2015,01,20,18,35,5.00
2015,01,20,18,36,5.00
2015,01,20,18,37,4.90
2015,01,20,18,38,4.90
2015,01,20,18,39,4.90
2015,01,20,18,40,4.80
2015,01,20,18,41,4.80
2015,01,20,18,42,4.80
2015,01,20,18,43,4.80
2015,01,20,18,44,4.70
2015,01,20,18,45,4.70
2015,01,20,18,46,4.70
2015,01,20,18,47,4.70
2015,01,20,18,48,4.60
2015,01,20,18,49,4.60
2015,01,20,18,50,4.60
2015,01,20,18,51,4.60
2015,01,20,18,52,4.50
2015,01,20,18,53,4.50
2015,01,20,18,54,4.50
2015,01,20,18,55,4.40
2015,01,20,18,56,4.40
2015,01,20,18,57,4.40
2015,01,20,18,58,4.40
2015,01,20,18,59,4.40
2015,01,20,19,00,4.40
2015,01,20,19,01,4.40
2015,01,20,19,02,4.30
2015,01,20,19,03,4.30
2015,01,20,19,04,4.30
2015,01,20,19,05,4.30
2015,01,20,19,06,4.30
2015,01,20,19,07,4.30
2015,01,20,19,08,4.20
2015,01,20,19,09,4.20
2015,01,20,19,10,4.20
2015,01,20,19,11,4.20
2015,01,20,19,12,4.20
2015,01,20,19,13,4.20
2015,01,20,19,14,4.20
2015,01,20,19,15,4.10
2015,01,20,19,16,4.10
2015,01,20,19,17,4.10
2015,01,20,19,18,4.10
2015,01,20,19,19,4.10
2015,01,20,19,20,4.10
2015,01,20,19,21,4.10
2015,01,20,19,22,4.00
2015,01,20,19,23,4.00
2015,01,20,19,24,4.00
2015,01,20,19,25,4.00
2015,01,20,19,26,4.00
2015,01,20,19,27,3.90
2015,01,20,19,28,3.90
2015,01,20,19,29,3.90
2015,01,20,19,30,3.90
2015,01,20,19,31,3.90
2015,01,20,19,32,3.90
2015,01,20,19,33,3.90
2015,01,20,19,34,3.90
2015,01,20,19,35,3.90
2015,01,20,19,36,3.90
2015,01,20,19,37,3.90
2015,01,20,19,38,3.90
2015,01,20,19,39,3.90
2015,01,20,19,40,3.80
2015,01,20,19,41,3.80
2015,01,20,19,42,3.80
2015,01,20,19,43,3.80
2015,01,20,19,44,3.80
2015,01,20,19,45,3.80
2015,01,20,19,46,3.80
2015,01,20,19,47,3.80
2015,01,20,19,48,3.80
2015,01,20,19,49,3.80
2015,01,20,19,50,3.80
2015,01,20,19,51,3.80
2015,01,20,19,52,3.80
2015,01,20,19,53,3.70
2015,01,20,19,54,3.70
2015,01,20,19,55,3.70
2015,01,20,19,56,3.70
2015,01,20,19,57,3.70
2015,01,20,19,58,3.70
2015,01,20,19,59,3.70
2015,01,20,20,00,3.70
2015,01,20,20,01,3.70
2015,01,20,20,02,3.70
2015,01,20,20,03,3.70
2015,01,20,20,04,3.70
2015,01,20,20,05,3.70
2015,01,20,20,06,3.60
2015,01,20,20,07,3.60
2015,01,20,20,08,3.60
2015,01,20,20,09,3.60
2015,01,20,20,10,3.60
2015,01,20,20,11,3.60
2015,01,20,20,12,3.60
2015,01,20,20,13,3.60
2015,01,20,20,14,3.60
2015,01,20,20,15,3.60
2015,01,20,20,16,3.60
2015,01,20,20,17,3.60
2015,01,20,20,18,3.60
2015,01,20,20,19,3.60
2015,01,20,20,20,3.60
2015,01,20,20,21,3.60
2015,01,20,20,22,3.60
2015,01,20,20,23,3.60
2015,01,20,20,24,3.60
2015,01,20,20,25,3.70
2015,01,20,20,26,3.70
2015,01,20,20,27,3.70
2015,01,20,20,28,3.70
2015,01,20,20,29,3.70
2015,01,20,20,30,3.70
2015,01,20,20,31,3.70
2015,01,20,20,32,3.70
2015,01,20,20,33,3.70
2015,01,20,20,34,3.70
2015,01,20,20,35,3.70
2015,01,20,20,36,3.70
2015,01,20,20,37,3.70
2015,01,20,20,38,3.70
2015,01,20,20,39,3.70
2015,01,20,20,40,3.70
2015,01,20,20,41,3.70
2015,01,20,20,42,3.70
2015,01,20,20,43,3.70
2015,01,20,20,44,3.70
2015,01,20,20,45,3.70
2015,01,20,20,46,3.70
2015,01,20,20,47,3.70
2015,01,20,20,48,3.70
2015,01,20,20,49,3.70
2015,01,20,20,50,3.80
2015,01,20,20,51,3.80
2015,01,20,20,52,3.70
2015,01,20,20,53,3.80
2015,01,20,20,54,3.70
2015,01,20,20,55,3.70
2015,01,20,20,56,3.70
2015,01,20,20,57,3.70
2015,01,20,20,58,3.70
2015,01,20,20,59,3.70
2015,01,20,21,00,3.70
2015,01,20,21,01,3.70
2015,01,20,21,02,3.70
2015,01,20,21,03,3.70
2015,01,20,21,04,3.70
2015,01,20,21,05,3.70
2015,01,20,21,06,3.70
2015,01,20,21,07,3.60
2015,01,20,21,08,3.60
2015,01,20,21,09,3.60
2015,01,20,21,10,3.60
2015,01,20,21,11,3.60
2015,01,20,21,12,3.60
2015,01,20,21,13,3.60
2015,01,20,21,14,3.60
2015,01,20,21,15,3.50
2015,01,20,21,16,3.50
2015,01,20,21,17,3.50
2015,01,20,21,18,3.50
2015,01,20,21,19,3.50
2015,01,20,21,20,3.40
2015,01,20,21,21,3.40
2015,01,20,21,22,3.40
2015,01,20,21,23,3.40
2015,01,20,21,24,3.40
2015,01,20,21,25,3.40
2015,01,20,21,26,3.40
2015,01,20,21,27,3.40
2015,01,20,21,28,3.40
2015,01,20,21,29,3.40
2015,01,20,21,30,3.40
2015,01,20,21,31,3.40
2015,01,20,21,32,3.40
2015,01,20,21,33,3.40
2015,01,20,21,34,3.30
2015,01,20,21,35,3.30
2015,01,20,21,36,3.30
2015,01,20,21,37,3.30
2015,01,20,21,38,3.30
2015,01,20,21,39,3.30
2015,01,20,21,40,3.30
2015,01,20,21,41,3.30
2015,01,20,21,42,3.30
2015,01,20,21,43,3.20
2015,01,20,21,44,3.20
2015,01,20,21,45,3.20
2015,01,20,21,46,3.20
2015,01,20,21,47,3.20
2015,01,20,21,48,3.20
2015,01,20,21,49,3.20
2015,01,20,21,50,3.20
2015,01,20,21,51,3.20
2015,01,20,21,52,3.10
2015,01,20,21,53,3.10
2015,01,20,21,54,3.10
2015,01,20,21,55,3.10
2015,01,20,21,56,3.10
2015,01,20,21,57,3.10
2015,01,20,21,58,3.10
2015,01,20,21,59,3.00
2015,01,20,22,00,3.00
2015,01,20,22,01,3.00
2015,01,20,22,02,3.00
2015,01,20,22,03,3.00
2015,01,20,22,04,3.00
2015,01,20,22,05,2.90
2015,01,20,22,06,2.90
2015,01,20,22,07,2.90
2015,01,20,22,08,2.90
2015,01,20,22,09,2.90
2015,01,20,22,10,2.90
2015,01,20,22,11,2.90
2015,01,20,22,12,2.90
2015,01,20,22,13,2.90
2015,01,20,22,14,2.90
2015,01,20,22,15,2.80
2015,01,20,22,16,2.80
2015,01,20,22,17,2.80
2015,01,20,22,18,2.80
2015,01,20,22,19,2.80
2015,01,20,22,20,2.80
2015,01,20,22,21,2.80
2015,01,20,22,22,2.80
2015,01,20,22,23,2.70
2015,01,20,22,24,2.70
2015,01,20,22,25,2.70
2015,01,20,22,26,2.70
2015,01,20,22,27,2.70
2015,01,20,22,28,2.70
2015,01,20,22,29,2.70
2015,01,20,22,30,2.70
2015,01,20,22,31,2.70
2015,01,20,22,32,2.70
2015,01,20,22,33,2.60
2015,01,20,22,34,2.60
2015,01,20,22,35,2.60
2015,01,20,22,36,2.60
2015,01,20,22,37,2.60
2015,01,20,22,38,2.60
2015,01,20,22,39,2.60
2015,01,20,22,40,2.60
2015,01,20,22,41,2.60
2015,01,20,22,42,2.60
2015,01,20,22,43,2.60
2015,01,20,22,44,2.60
2015,01,20,22,45,2.60
2015,01,20,22,46,2.60
2015,01,20,22,47,2.60
2015,01,20,22,48,2.50
2015,01,20,22,49,2.50
2015,01,20,22,50,2.50
2015,01,20,22,51,2.50
2015,01,20,22,52,2.50
2015,01,20,22,53,2.50
2015,01,20,22,54,2.50
2015,01,20,22,55,2.50
2015,01,20,22,56,2.50
2015,01,20,22,57,2.50
2015,01,20,22,58,2.50
2015,01,20,22,59,2.40
2015,01,20,23,00,2.40
2015,01,20,23,01,2.40
2015,01,20,23,02,2.40
2015,01,20,23,03,2.50
2015,01,20,23,04,2.50
2015,01,20,23,05,2.50
2015,01,20,23,06,2.50
2015,01,20,23,07,2.50
2015,01,20,23,08,2.50
2015,01,20,23,09,2.50
2015,01,20,23,10,2.50
2015,01,20,23,11,2.50
2015,01,20,23,12,2.50
2015,01,20,23,13,2.40
2015,01,20,23,14,2.40
2015,01,20,23,15,2.40
2015,01,20,23,16,2.40
2015,01,20,23,17,2.40
2015,01,20,23,18,2.40
2015,01,20,23,19,2.40
2015,01,20,23,20,2.40
2015,01,20,23,21,2.40
2015,01,20,23,22,2.40
2015,01,20,23,23,2.40
2015,01,20,23,24,2.40
2015,01,20,23,25,2.40
2015,01,20,23,26,2.40
2015,01,20,23,27,2.40
2015,01,20,23,28,2.40
2015,01,20,23,29,2.40
2015,01,20,23,30,2.40
2015,01,20,23,31,2.40
2015,01,20,23,32,2.40
2015,01,20,23,33,2.40
2015,01,20,23,34,2.40
2015,01,20,23,35,2.40
2015,01,20,23,36,2.40
2015,01,20,23,37,2.30
2015,01,20,23,38,2.30
2015,01,20,23,39,2.30
2015,01,20,23,40,2.30
2015,01,20,23,41,2.30
2015,01,20,23,42,2.30
2015,01,20,23,43,2.30
2015,01,20,23,44,2.30
2015,01,20,23,45,2.30
2015,01,20,23,46,2.30
2015,01,20,23,47,2.20
2015,01,20,23,48,2.20
2015,01,20,23,49,2.20
2015,01,20,23,50,2.20
2015,01,20,23,51,2.20
2015,01,20,23,52,2.20
2015,01,20,23,53,2.20
2015,01,20,23,54,2.20
2015,01,20,23,55,2.30
2015,01,20,23,56,2.30
2015,01,20,23,57,2.30
2015,01,20,23,58,2.30
2015,01,20,23,59,2.30
